Temperature
15 15 15 15 15 14 14 14 14 14 13 13 13 13 13 13 12 12 11 11 11 10 10 10 10 9 9 9 8 8 7 7 6 7 6 6 6 6 5 5 5 5 4
14 14 14 14 14 14 14 14 14 13 13 13 13 12 12 12 12 12 11 11 11 10 10 10 10 9 9 8 8 8 7 7 7 6 6 6 6 5 5 4 4 4 4
13 13 13 13 14 14 14 14 13 13 13 13 12 12 12 12 12 12 11 11 11 11 10 10 10 9 9 8 8 8 7 7 6 6 6 5 5 5 4 4 3 3 3
13 13 13 13 13 13 13 13 13 13 12 12 12 12 12 12 11 11 11 11 10 10 10 10 9 9 8 8 8 7 7 6 6 6 5 5 4 4 4 3 3 3 2
12 12 12 12 13 13 13 13 12 12 12 12 12 11 11 11 11 11 11 10 10 10 9 9 9 9 8 8 8 7 7 6 6 5 5 4 4 3 3 3 2 2 2
12 12 12 12 12 12 12 12 12 12 12 11 11 11 11 11 11 10 10 10 10 9 9 9 8 8 8 7 7 7 6 6 5 5 4 4 3 3 3 2 2 1 0
11 11 11 11 11 11 11 11 11 11 11 11 11 10 10 10 10 10 10 9 9 9 9 8 8 7 7 7 6 6 6 5 5 5 4 4 3 3 2 2 1 1 0
10 10 11 10 10 11 11 10 10 10 10 10 10 10 10 10 10 9 9 8 8 8 8 7 7 7 6 6 6 5 5 5 4 4 3 3 3 2 2 1 1 0 -1
9 10 10 10 10 10 10 10 10 10 10 10 9 9 9 9 9 9 8 8 7 7 7 7 6 6 6 6 5 5 5 4 4 3 3 2 2 2 1 0 -0 -1 -2
9 9 9 9 9 9 9 9 9 9 9 9 8 8 8 8 8 8 8 7 7 6 6 6 6 5 5 5 5 5 4 4 3 3 2 2 1 1 0 -0 -1 -2 -2
8 8 8 8 8 8 8 8 8 8 8 8 8 8 8 7 7 7 7 7 6 6 6 5 5 5 5 4 4 4 4 3 3 2 1 1 1 -0 -1 -1 -2 -2 -3
7 7 7 7 7 7 7 7 7 7 7 7 7 7 7 7 7 7 6 6 6 5 5 5 5 4 4 4 3 3 3 2 2 1 1 0 -1 -1 -1 -2 -2 -3 -4
6 6 6 6 6 6 6 6 6 6 6 6 6 6 6 6 6 6 6 5 5 5 4 4 4 4 3 3 3 2 2 2 1 0 -0 -1 -1 -2 -2 -3 -3 -4 -4
5 5 5 5 5 6 6 6 5 5 5 5 5 5 5 5 5 5 5 4 4 4 3 3 3 3 2 2 2 1 1 1 0 -0 -1 -2 -2 -3 -3 -4 -4 -4 -5
4 4 4 4 4 4 5 5 4 5 5 5 5 5 5 5 5 5 4 4 4 3 3 2 2 1 1 1 1 0 0 -0 -1 -1 -2 -2 -3 -3 -4 -4 -5 -5 -5
3 3 3 3 3 3 3 3 3 4 4 4 4 4 4 4 4 4 4 3 3 3 2 2 1 1 1 0 0 -0 -1 -1 -2 -2 -3 -3 -4 -4 -4 -5 -5 -6 -6
2 2 2 2 2 3 3 3 3 3 3 3 3 3 3 3 3 3 3 2 2 2 1 1 1 0 -0 -0 -1 -1 -2 -2 -2 -3 -3 -4 -4 -5 -5 -5 -6 -6 -6
2 2 2 2 2 2 2 2 2 2 2 2 2 2 2 2 2 2 1 1 1 0 0 0 -0 -0 -1 -1 -1 -2 -2 -3 -3 -3 -4 -4 -5 -5 -5 -6 -6 -6 -7
1 1 1 1 1 1 1 1 1 1 1 1 1 1 1 1 1 1 1 0 -0 -0 -0 -1 -1 -1 -1 -2 -2 -2 -3 -3 -4 -4 -4 -5 -5 -6 -6 -6 -7 -7 -7
0 0 0 0 0 0 0 0 0 0 -0 -0 -0 -0 -0 -0 -0 -0 -1 -1 -1 -1 -1 -1 -2 -2 -2 -2 -3 -3 -3 -4 -4 -5 -5 -5 -6 -6 -6 -7 -7 -7 -7
-0 -0 -0 -0 -0 -0 -0 -1 -1 -1 -1 -1 -1 -1 -1 -1 -1 -1 -1 -1 -1 -1 -2 -2 -2 -2 -2 -3 -3 -3 -4 -4 -5 -5 -5 -6 -6 -7 -7 -7 -7 -8 -8
-1 -1 -1 -1 -1 -1 -1 -1 -1 -1 -1 -2 -2 -2 -2 -2 -2 -2 -2 -2 -2 -2 -2 -3 -3 -3 -3 -3 -3 -4 -4 -5 -5 -6 -6 -6 -7 -7 -7 -8 -8 -8 -8
-2 -2 -2 -2 -2 -2 -2 -2 -2 -2 -2 -2 -2 -2 -2 -2 -2 -2 -2 -2 -3 -3 -3 -3 -3 -3 -4 -4 -4 -4 -5 -5 -6 -6 -6 -7 -7 -7 -8 -8 -8 -8 -8
-3 -2 -3 -3 -3 -3 -3 -3 -3 -2 -2 -2 -2 -2 -3 -3 -3 -3 -3 -3 -3 -4 -4 -4 -4 -4 -4 -4 -5 -5 -5 -6 -6 -6 -7 -7 -7 -8 -8 -8 -8 -8 -8
-3 -3 -3 -3 -3 -3 -3 -3 -3 -3 -3 -3 -3 -3 -3 -3 -3 -3 -3 -4 -4 -4 -4 -4 -4 -5 -5 -5 -5 -6 -6 -6 -7 -7 -7 -8 -8 -8 -8 -8 -8 -9 -9
-4 -4 -4 -4 -4 -4 -4 -4 -4 -4 -4 -3 -4 -4 -4 -4 -4 -4 -4 -4 -5 -5 -5 -5 -5 -5 -5 -6 -6 -6 -6 -7 -7 -7 -8 -8 -8 -8 -8 -8 -9 -9 -9
Wind_Speed
11 12 13 14 16 16 17 18 17 17 17 18 18 18 19 19 19 18 18 17 18 17 16 16 16 14 11 10 10 10 10 10 12 9 6 5 6 6 5 6 6 7 7
9 10 12 13 13 15 16 17 17 17 17 17 17 18 18 18 18 18 18 18 18 18 17 16 16 13 15 12 10 11 11 11 10 11 7 6 7 6 6 6 5 6 7
6 8 9 11 12 14 15 15 16 16 16 17 17 17 17 17 17 17 17 17 17 17 17 17 16 16 16 13 12 12 10 9 9 9 7 4 4 4 5 5 6 6 6
6 7 8 10 11 12 12 14 15 15 16 16 16 16 16 16 16 16 16 16 16 16 15 15 16 16 16 15 13 13 10 10 9 8 7 5 4 4 4 5 5 5 6
6 7 8 9 9 10 11 12 13 14 15 15 15 15 15 14 14 15 15 15 15 15 14 14 14 15 15 13 10 11 11 9 8 8 7 6 5 4 5 4 6 5 6
7 7 7 7 8 9 10 10 11 12 13 13 14 14 15 12 14 16 15 14 14 14 14 13 12 13 14 14 14 14 13 12 11 9 8 8 8 7 5 5 5 4 5
7 7 7 7 8 8 8 9 10 11 12 13 13 13 14 14 14 16 16 14 13 13 13 11 9 10 13 12 13 13 12 12 12 10 9 9 8 7 6 6 6 6 5
6 7 6 6 7 7 8 9 9 9 9 10 11 12 12 12 13 15 16 14 12 12 12 12 11 11 11 11 10 9 8 9 9 8 8 7 6 6 6 6 5 4 4
7 7 6 6 6 7 8 8 8 8 8 9 9 10 11 10 12 14 14 11 10 11 10 10 11 11 12 13 11 9 8 6 6 7 6 5 5 5 5 3 3 2 4
7 7 6 6 6 7 7 7 6 7 7 7 7 9 10 9 10 13 14 9 9 8 8 8 10 10 12 13 11 10 9 7 7 6 6 5 5 6 7 6 5 4 3
7 6 6 6 6 6 5 5 5 5 6 6 7 7 8 9 10 13 13 9 8 8 7 7 7 12 13 13 11 9 10 8 7 6 5 5 4 4 4 4 4 4 4
6 6 5 5 4 4 4 4 5 5 5 6 6 6 6 6 8 11 13 11 9 8 7 6 7 11 12 11 9 8 10 9 6 5 5 5 4 4 3 3 3 3 4
6 6 5 5 4 4 4 4 4 5 5 5 5 6 5 5 6 9 12 12 10 7 6 8 9 11 10 8 9 10 9 7 6 6 6 5 4 3 3 2 2 2 3
6 6 5 5 4 3 3 3 4 4 5 5 5 5 5 5 5 6 7 8 8 7 6 7 9 10 7 6 7 7 6 6 6 6 5 3 3 3 3 2 2 2 2
6 5 5 5 4 4 3 3 4 4 5 5 5 5 6 6 7 8 8 7 7 7 7 5 5 6 5 5 5 5 5 5 5 5 5 4 4 3 3 2 2 2 3
5 5 4 4 4 3 3 3 2 3 3 4 4 5 4 5 6 8 9 9 10 12 8 6 6 6 6 6 6 6 5 5 5 5 4 5 4 4 3 2 2 3 3
5 5 4 4 4 3 3 2 2 1 0 2 3 3 4 5 6 8 9 10 12 12 6 6 6 6 6 6 6 6 5 5 5 5 5 5 4 4 3 3 3 3 3
5 4 4 4 4 3 3 2 2 2 1 1 1 4 5 6 7 9 10 10 8 7 5 6 6 6 6 6 6 5 5 5 5 4 4 4 4 4 4 3 3 3 3
5 4 4 3 3 3 3 2 2 2 1 1 1 2 4 6 8 9 10 6 6 6 5 5 5 5 6 6 5 5 5 5 5 4 4 4 4 4 4 3 3 4 4
4 5 4 3 3 2 2 2 2 1 2 2 2 2 3 4 4 5 5 4 5 5 5 5 5 5 5 6 5 5 5 5 5 4 4 4 4 4 4 4 4 4 4
4 4 4 3 3 2 2 2 2 1 2 2 2 2 4 3 4 4 4 4 4 5 5 5 5 5 5 5 5 5 5 5 4 4 4 4 4 4 3 3 3 3 3
4 3 3 3 2 2 2 1 1 1 2 2 2 2 4 3 3 3 3 3 3 3 4 4 4 4 5 5 6 6 5 5 5 4 4 4 4 4 3 3 3 3 3
3 3 3 2 2 2 2 1 1 2 2 2 2 2 2 2 3 3 3 3 3 3 4 4 4 4 4 4 4 5 5 5 5 5 5 4 4 4 4 4 4 3 3
3 3 2 2 1 1 1 1 1 1 2 2 2 3 2 2 3 3 3 3 3 3 3 4 4 5 5 4 4 4 4 5 5 5 6 5 4 4 4 3 3 3 3
2 2 2 1 1 1 1 1 1 1 2 2 2 2 2 3 3 3 3 3 4 4 4 4 4 5 6 6 5 5 6 7 6 5 5 4 4 4 3 3 3 2 2
2 2 1 1 1 1 1 1 1 2 2 2 2 2 3 3 3 3 4 4 4 3 3 3 4 5 6 5 6 7 8 8 8 7 5 4 4 3 3 2 2 2 2
Wind_Direction
239 235 233 233 230 227 224 224 222 220 217 215 213 211 212 212 211 212 213 212 214 215 214 217 219 218 219 219 218 220 224 229 245 252 244 235 223 226 227 237 244 248 253
247 240 238 236 233 230 228 225 222 221 219 217 215 213 213 212 211 211 212 212 213 215 215 216 219 217 219 219 217 219 223 224 234 248 245 231 232 230 234 240 246 252 262
263 248 244 240 236 234 233 229 223 220 219 216 215 214 214 212 212 212 213 214 215 217 217 217 219 217 219 219 218 220 222 222 225 238 244 234 235 230 240 246 250 255 265
273 259 249 244 241 239 237 232 226 220 218 216 214 215 213 212 211 211 212 214 217 219 220 220 220 219 219 218 217 218 217 216 220 229 236 235 235 230 234 246 254 254 266
275 265 257 253 249 244 238 233 227 220 217 215 214 213 212 211 211 210 210 213 216 219 221 221 222 219 218 216 213 213 209 213 215 220 228 230 226 221 229 235 252 265 266
278 271 271 264 253 244 240 235 228 224 217 214 214 213 213 213 205 203 206 212 215 217 219 220 219 217 215 213 212 211 207 208 211 215 222 228 231 229 228 231 246 262 269
282 278 272 262 254 249 243 235 228 225 221 216 215 215 216 214 200 198 201 209 215 218 218 216 214 213 210 214 211 208 211 213 213 215 219 226 228 223 217 227 233 246 260
284 282 278 268 256 250 242 236 231 225 222 219 217 216 218 214 198 198 197 208 216 218 216 213 211 210 207 203 202 204 212 217 215 217 223 225 223 212 207 217 229 249 275
291 289 285 275 263 250 241 238 232 224 223 223 218 214 216 214 197 195 191 209 214 216 214 211 208 208 199 187 190 197 204 213 202 197 206 207 195 188 182 181 196 231 264
293 291 287 277 264 254 245 240 234 224 223 222 223 218 216 215 195 188 188 203 208 210 209 207 203 203 193 185 193 195 201 203 188 185 190 189 187 180 184 195 199 219 255
303 299 295 286 272 262 251 241 227 217 217 219 221 221 216 213 195 188 190 201 202 201 203 202 201 191 191 191 195 201 200 191 185 182 183 183 183 185 191 198 202 215 233
306 300 298 295 287 271 254 240 220 208 212 217 215 218 218 210 202 195 195 201 198 199 200 198 194 188 191 192 196 192 179 173 172 173 182 189 191 194 194 202 211 231 245
307 302 299 298 290 269 250 235 217 208 212 217 214 215 212 206 200 192 196 198 194 195 193 183 181 182 186 191 187 179 172 170 170 178 188 194 192 183 178 192 211 226 258
306 303 300 297 296 285 261 235 219 215 214 216 219 218 212 203 198 194 197 195 186 178 169 167 168 169 172 178 177 172 172 173 173 177 176 173 166 174 190 199 220 233 262
305 304 307 305 296 292 279 261 243 236 230 224 221 214 207 211 206 192 187 189 184 177 160 156 163 167 170 167 163 161 161 161 166 167 168 170 175 186 199 205 221 236 253
302 304 306 303 296 291 291 299 292 254 250 246 240 227 223 216 189 185 184 176 167 160 155 165 173 177 176 171 167 165 167 171 170 168 172 178 184 190 198 205 216 236 251
294 295 297 294 289 290 285 278 290 307 216 192 197 193 183 168 164 167 165 158 158 158 161 171 175 175 171 168 168 168 173 172 167 172 179 183 185 193 199 207 218 236 253
297 292 288 286 282 282 273 265 259 246 247 262 173 160 159 154 151 152 149 143 156 164 167 167 168 168 167 168 169 168 165 165 168 173 181 186 188 193 200 211 223 236 253
300 292 291 287 281 279 274 262 254 242 219 196 120 141 145 146 145 150 152 161 169 172 167 163 163 163 163 164 165 165 166 169 172 177 185 190 193 196 204 215 227 235 248
299 297 296 288 282 280 272 255 242 225 203 189 182 159 141 140 150 162 167 167 168 166 162 161 160 161 162 163 162 162 164 168 173 181 190 195 196 197 202 213 224 233 245
299 297 296 291 282 280 278 262 237 217 207 190 185 162 156 161 166 167 169 167 165 161 161 161 160 162 163 162 163 165 168 176 180 184 189 193 193 195 201 213 224 235 250
296 293 291 290 291 291 291 272 231 199 190 181 163 152 155 157 161 163 159 153 147 147 155 157 160 164 168 168 170 171 174 179 182 183 187 189 189 193 201 213 224 233 245
293 291 292 294 293 289 291 257 208 188 181 177 160 149 157 159 157 150 142 138 137 140 144 149 153 158 158 162 170 175 179 183 183 183 184 184 188 196 202 211 219 230 242
289 284 284 288 289 277 269 244 201 179 172 168 158 154 156 152 147 138 138 138 137 139 140 146 154 157 156 159 165 169 170 168 170 177 180 182 188 196 201 206 215 224 237
295 290 289 285 273 264 253 215 175 164 161 160 153 147 147 147 145 138 133 132 130 135 139 145 152 154 156 159 162 164 166 168 171 167 169 175 180 188 191 197 209 223 239
305 299 293 287 269 245 218 187 168 162 157 150 145 146 150 150 147 141 136 135 134 135 139 145 149 152 157 158 159 161 166 168 170 170 164 166 171 177 180 188 203 218 232
Height
1388 1389 1391 1392 1394 1397 1398 1400 1403 1406 1409 1412 1414 1417 1420 1422 1425 1428 1430 1433 1435 1437 1440 1442 1443 1446 1447 1449 1450 1451 1452 1453 1452 1452 1452 1452 1450 1450 1449 1448 1447 1445 1444
1383 1383 1385 1386 1388 1390 1391 1393 1395 1398 1401 1404 1406 1409 1411 1414 1417 1419 1422 1424 1427 1429 1431 1433 1435 1438 1439 1441 1442 1443 1444 1445 1445 1445 1445 1445 1444 1443 1443 1442 1440 1439 1437
1378 1378 1379 1380 1381 1382 1384 1386 1388 1390 1393 1395 1398 1400 1403 1405 1408 1411 1414 1416 1418 1421 1423 1425 1427 1430 1431 1433 1434 1435 1437 1438 1438 1438 1438 1438 1437 1436 1436 1435 1434 1432 1431
1373 1372 1373 1373 1374 1376 1377 1379 1380 1382 1384 1387 1389 1392 1394 1397 1400 1403 1406 1408 1411 1413 1415 1417 1419 1421 1423 1425 1426 1428 1429 1430 1431 1431 1431 1430 1430 1429 1429 1428 1427 1426 1424
1368 1367 1367 1368 1369 1369 1370 1371 1373 1375 1376 1379 1381 1384 1386 1389 1392 1395 1398 1400 1403 1405 1407 1409 1411 1413 1415 1417 1418 1420 1421 1422 1423 1423 1423 1423 1423 1423 1422 1421 1420 1419 1417
1363 1363 1362 1362 1362 1363 1364 1365 1366 1368 1369 1372 1374 1376 1378 1381 1383 1387 1390 1392 1395 1397 1399 1401 1403 1406 1407 1409 1411 1412 1414 1415 1415 1416 1416 1416 1416 1416 1416 1415 1414 1413 1411
1359 1358 1357 1357 1357 1357 1358 1359 1360 1361 1363 1364 1366 1368 1371 1373 1376 1379 1382 1385 1387 1389 1391 1393 1395 1397 1400 1402 1403 1405 1406 1407 1408 1409 1409 1409 1409 1410 1410 1409 1408 1407 1405
1354 1353 1352 1352 1351 1351 1352 1352 1353 1354 1355 1357 1359 1361 1363 1365 1368 1371 1375 1378 1380 1382 1384 1386 1388 1390 1392 1394 1396 1397 1399 1400 1401 1402 1403 1403 1403 1403 1403 1403 1402 1401 1399
1349 1348 1347 1346 1346 1346 1346 1346 1347 1348 1349 1351 1352 1354 1356 1358 1361 1364 1368 1370 1372 1374 1376 1379 1381 1383 1385 1387 1389 1390 1392 1393 1395 1395 1396 1397 1397 1397 1397 1397 1396 1395 1393
1344 1343 1342 1341 1340 1340 1340 1340 1340 1341 1342 1344 1346 1348 1350 1352 1354 1357 1360 1363 1364 1367 1369 1371 1374 1376 1378 1380 1382 1383 1385 1386 1388 1388 1389 1390 1390 1390 1391 1390 1390 1389 1387
1340 1339 1338 1336 1335 1335 1335 1335 1335 1335 1337 1338 1340 1342 1344 1346 1348 1351 1353 1356 1357 1360 1362 1364 1367 1370 1372 1374 1376 1377 1378 1381 1381 1382 1383 1383 1384 1384 1384 1384 1384 1383 1382
1336 1334 1333 1332 1330 1330 1330 1330 1330 1330 1331 1333 1334 1336 1338 1340 1342 1344 1347 1350 1352 1354 1356 1358 1361 1363 1366 1367 1369 1371 1373 1374 1375 1376 1377 1377 1378 1378 1378 1379 1379 1378 1377
1331 1330 1328 1327 1326 1326 1326 1325 1325 1326 1327 1327 1329 1330 1331 1334 1336 1338 1341 1344 1346 1348 1350 1353 1355 1358 1360 1361 1363 1365 1366 1368 1369 1370 1371 1372 1373 1373 1374 1374 1373 1373 1372
1327 1325 1324 1323 1322 1321 1321 1321 1321 1321 1322 1322 1324 1325 1326 1327 1329 1332 1335 1338 1340 1343 1345 1348 1350 1352 1354 1356 1357 1359 1361 1362 1363 1365 1366 1367 1368 1369 1369 1369 1369 1368 1367
1323 1322 1320 1319 1318 1317 1316 1316 1316 1316 1317 1318 1319 1320 1321 1322 1324 1326 1329 1331 1333 1336 1339 1341 1344 1346 1348 1350 1352 1353 1356 1357 1359 1360 1362 1362 1363 1364 1365 1365 1364 1364 1363
1319 1317 1316 1315 1314 1313 1312 1312 1312 1313 1313 1314 1315 1317 1318 1319 1321 1322 1325 1327 1329 1332 1334 1336 1338 1340 1342 1344 1346 1348 1351 1353 1355 1356 1357 1358 1359 1360 1360 1360 1360 1360 1359
1316 1314 1312 1311 1310 1309 1309 1308 1308 1308 1309 1310 1311 1312 1314 1315 1317 1319 1321 1323 1325 1327 1329 1331 1333 1335 1338 1340 1342 1345 1347 1349 1351 1352 1353 1354 1355 1356 1356 1356 1356 1356 1355
1312 1311 1309 1308 1307 1306 1306 1306 1305 1305 1305 1305 1307 1308 1310 1311 1313 1315 1318 1320 1321 1323 1325 1327 1329 1332 1334 1337 1339 1341 1343 1345 1347 1349 1350 1351 1352 1352 1352 1353 1352 1352 1352
1308 1307 1306 1304 1304 1303 1303 1302 1302 1302 1302 1303 1304 1305 1307 1309 1311 1313 1315 1316 1318 1320 1322 1325 1327 1329 1332 1334 1336 1339 1340 1342 1343 1345 1346 1347 1348 1348 1349 1349 1349 1349 1348
1304 1303 1302 1301 1300 1300 1299 1299 1299 1299 1300 1300 1301 1302 1304 1306 1307 1309 1311 1313 1315 1317 1320 1322 1325 1327 1329 1332 1334 1335 1337 1339 1340 1341 1343 1344 1344 1345 1345 1345 1346 1346 1345
1301 1300 1299 1298 1297 1297 1297 1297 1296 1297 1297 1298 1299 1300 1302 1303 1305 1307 1309 1311 1313 1315 1317 1320 1322 1325 1327 1329 1331 1332 1334 1335 1337 1338 1339 1340 1341 1341 1342 1342 1343 1343 1342
1298 1297 1296 1295 1294 1294 1294 1294 1294 1294 1295 1296 1297 1299 1300 1302 1303 1305 1307 1309 1311 1313 1315 1318 1320 1322 1324 1326 1328 1329 1331 1332 1334 1335 1336 1336 1337 1338 1339 1339 1340 1340 1339
1295 1294 1293 1292 1292 1292 1291 1292 1292 1292 1293 1294 1295 1297 1298 1300 1301 1303 1305 1307 1309 1311 1313 1316 1318 1320 1321 1323 1325 1327 1328 1329 1331 1332 1332 1333 1334 1335 1336 1337 1337 1337 1337
1292 1291 1291 1290 1289 1289 1289 1290 1290 1291 1292 1293 1294 1295 1296 1298 1300 1301 1303 1305 1307 1309 1311 1313 1315 1317 1319 1321 1322 1324 1325 1327 1328 1329 1330 1331 1332 1333 1333 1334 1334 1334 1334
1290 1289 1288 1288 1287 1287 1288 1288 1288 1289 1290 1291 1292 1293 1295 1296 1298 1299 1301 1303 1305 1307 1309 1311 1313 1315 1317 1318 1320 1321 1323 1324 1325 1326 1328 1329 1330 1330 1331 1332 1332 1332 1332
1287 1286 1286 1286 1286 1286 1286 1286 1287 1288 1289 1289 1290 1292 1293 1294 1296 1298 1300 1301 1304 1306 1307 1309 1311 1312 1314 1316 1318 1319 1321 1322 1323 1325 1326 1327 1328 1329 1329 1330 1330 1330 1330